Погода в Надднестрянское

Украина / Винницкая область     48°38′40″N   27°25′24″E
темп.,
°C
ветер,
м/с
пор.,
м/с
влажн.,
%
обл.,
%
осадки,
мм/ч
давл.,
гПа
погр.,
м
28 февраля, вс
вс2823:00+2ссз6119683 0.4 1026650
02:00+1ссз5109287 0.7 1026515
05:00+1сз61195100 0.3 1027799
08:00+1сз81287100 0.5 1028893
11:00+2сз7107495 0.1 10281027
14:00+4сз7106195 0.1 10271147
17:00+4сз51066100 0.0 10251019
20:00+2сз81395100 0.1 1025904
1 марта, пн
пн123:00+2сз71296100 1.1 1024694
02:00+2ссз61197100 2.2 1025615
05:00+2с5995100 0.4 1026590
08:00+1с5894100 0.6 1028504
11:00+2ссв5881100 0.1 1030792
14:00+4с457299 0.2 1031918
17:00+4ссз3673100 0.1 1032689
20:00+2сз368299 0.1 1034253
2 марта, вт
вт223:00+2зсз3582100 0.0 1034166
02:00+1зсз368994 0.0 1034153
05:000зсз49925 0.0 1032275
08:00+1зсз598941 0.0 1031344
11:00+6зсз7107496 0.0 1030644
14:00+9сз8115969 0.0 10291058
17:00+7сз611660 0.0 1028806
20:00+4ссз513820 0.0 1029460
3 марта, ср
ср323:00+3сз410900 0.0 1031278
02:00+2сз48910 0.0 1031181
05:00+1сз48920 0.0 1030162
08:00+2сз38890 0.0 1030250
11:00+6сз57710 0.0 1030663
14:00+9сз57640 0.0 1028812
17:00+8сз36690 0.0 1027579
20:00+4сз23850 0.0 102931
4 марта, чт
чт423:00+3сз11900 0.0 102922
02:00+2юз11910 0.0 102722
05:00+1ююз12910 0.0 102622
08:00+2ююз23896 0.0 102482
11:00+8ююз45690 0.0 1022407
14:00+11ююз465714 0.0 1019588
17:00+9ююз356417 0.0 1017155
20:00+6юз227619 0.0 101722